Location: Baller�as
(41.9020°N, 0.1554°W)
Time: 00:57:34
(UTC+00:00)

Cosmos 1727 Rocket - Pass Details

Date: 10 August 2020
Orbit: 961 x 996 km, 82.9° (Epoch: 22 September)

Event Time Altitude Azimuth Distance (km) Brightness Sun altitude
Rises 20:07:25 0° 350° (N) 3,724 7.7 -10.8°
Reaches altitude 10° 20:09:57 10° 348° (NNW) 2,772 7.0 -11.2°
Maximum altitude 20:16:17 72° 266° (W) 1,048 4.3 -12.2°
Drops below altitude 10° 20:22:34 10° 183° (S) 2,749 6.1 -13.2°
Sets 20:25:05 0° 182° (S) 3,690 6.7 -13.6°
